Weather History for KSGF - May, 2013

Change the Weather History Date:

Wednesday, May 8, 2013

  Actual Average Record
Temperature  
Mean Temperature 63 °F 63 °F  
Max Temperature 73 °F 73 °F 89 °F (1918)
Min Temperature 52 °F 52 °F 35 °F (1976)
Degree Days  
Heating Degree Days 2 4  
Month to date heating degree days 102 39  
Since 1 July heating degree days 4454 4513  
Cooling Degree Days 0 2  
Month to date cooling degree days 4 11  
Year to date cooling degree days 21 36  
Growing Degree Days 12 (Base 50)    
Moisture  
Dew Point 54 °F    
Average Humidity 73    
Maximum Humidity 89    
Minimum Humidity 57    
Precipitation  
Precipitation 0.04 in 0.18 in 3.27 in (1929)
Month to date precipitation 1.21 1.42  
Year to date precipitation 16.96 14.35  
Snow  
Snow 0.00 in - - ()
Month to date snowfall 1.4  
Since 1 July snowfall 12.7  
Snow Depth 0.00 in    
Sea Level Pressure  
Sea Level Pressure 29.99 in    
Wind  
Wind Speed 7 mph (SE)    
Max Wind Speed 21 mph    
Max Gust Speed 24 mph    
Visibility 10 miles    
Events Rain    
T = Trace of Precipitation, MM = Missing Value Source: NWS Daily Summary

Daily Weather History Graph

Daily Weather History Graph

Search for Another Location

Airport or City:

Trip Planner

Search our weather history database for the weather conditions in past years. The results will help you decide how hot, cold, wet, or windy it might be!

Date:

Astronomy

May. 08, 2013 Rise Set
Actual Time 6:11 AM CDT 8:09 PM CDT
Civil Twilight 5:42 AM CDT 8:38 PM CDT
Nautical Twilight 5:07 AM CDT 9:13 PM CDT
Astronomical Twilight 4:30 AM CDT 9:50 PM CDT
Moon 5:17 AM CDT (5/8) 7:09 PM CDT (5/8)
Length of Visible Light 14h 55m
Length of Day
13h 58m
Waning Crescent, 2% of the Moon is Illuminated
May 8
Waning Crescent
May 9
New
May 17
First Quarter
May 24
Full
May 31
Last Quarter

Hourly Weather History & Observations

Time (CDT) Temp. Dew Point Humidity Pressure Visibility Wind Dir Wind Speed Gust Speed Precip Events Conditions
12:52 AM 55.0 °F 48.9 °F 80% 30.00 in 10.0 mi SSE 4.6 mph - N/A   Clear
1:52 AM 55.9 °F 50.0 °F 80% 29.99 in 10.0 mi SSE 3.5 mph - N/A   Partly Cloudy
2:52 AM 55.0 °F 50.0 °F 83% 29.99 in 10.0 mi SSE 8.1 mph - N/A   Clear
3:52 AM 54.0 °F 50.0 °F 86% 29.98 in 10.0 mi SE 9.2 mph - N/A   Clear
4:52 AM 53.1 °F 48.9 °F 86% 29.98 in 10.0 mi SSE 6.9 mph - N/A   Clear
5:52 AM 53.1 °F 48.9 °F 86% 29.99 in 10.0 mi SE 8.1 mph - N/A   Clear
6:52 AM 54.0 °F 50.0 °F 86% 30.01 in 10.0 mi SSE 6.9 mph - N/A   Clear
7:52 AM 61.0 °F 54.0 °F 78% 30.02 in 10.0 mi SSE 5.8 mph - N/A   Mostly Cloudy
8:52 AM 64.0 °F 55.0 °F 73% 30.04 in 10.0 mi South 5.8 mph - N/A   Overcast
9:52 AM 66.9 °F 55.9 °F 68% 30.05 in 10.0 mi South 5.8 mph - N/A   Overcast
10:52 AM 69.1 °F 55.9 °F 63% 30.06 in 10.0 mi Calm Calm - N/A   Overcast
11:52 AM 69.1 °F 54.0 °F 58% 30.06 in 10.0 mi Calm Calm - 0.00 in   Overcast
12:52 PM 68.0 °F 55.0 °F 63% 30.06 in 10.0 mi WNW 4.6 mph - 0.00 in Rain Light Rain
1:52 PM 64.9 °F 57.0 °F 75% 30.08 in 10.0 mi West 4.6 mph - 0.00 in   Overcast
2:31 PM 63.0 °F 57.0 °F 81% 29.98 in 10.0 mi ESE 13.8 mph - 0.04 in Rain Light Rain
2:52 PM 64.0 °F 57.9 °F 80% 29.97 in 10.0 mi SSE 11.5 mph - 0.04 in   Partly Cloudy
3:52 PM 66.0 °F 57.0 °F 73% 29.98 in 10.0 mi SSE 6.9 mph - N/A   Overcast
4:52 PM 69.1 °F 57.9 °F 68% 29.96 in 10.0 mi ESE 5.8 mph - N/A   Partly Cloudy
5:52 PM 71.1 °F 57.9 °F 63% 29.95 in 10.0 mi ESE 6.9 mph - N/A   Partly Cloudy
6:52 PM 72.0 °F 59.0 °F 64% 29.93 in 10.0 mi East 5.8 mph - N/A   Partly Cloudy
7:52 PM 66.9 °F 57.9 °F 73% 29.91 in 10.0 mi East 6.9 mph - N/A   Clear
8:52 PM 66.0 °F 57.0 °F 73% 29.91 in 10.0 mi East 9.2 mph - N/A   Clear
9:52 PM 63.0 °F 55.9 °F 78% 29.93 in 10.0 mi SE 8.1 mph - N/A   Clear
10:52 PM 61.0 °F 55.9 °F 83% 29.94 in 10.0 mi SE 6.9 mph - N/A   Clear
11:52 PM 64.0 °F 55.0 °F 73% 29.95 in 10.0 mi SSE 9.2 mph - N/A   Partly Cloudy